TimeMST,TemperatureF,Dew PointF,Humidity,Sea Level PressureIn,VisibilityMPH,Wind Direction,Wind SpeedMPH,Gust SpeedMPH,PrecipitationIn,Events,Conditions,WindDirDegrees,DateUTC
12:53 AM,34.0,21.9,61,30.01,10.0,Calm,Calm,-,N/A,,Overcast,0,2012-12-11 07:53:00
1:53 AM,35.1,23.0,61,29.98,10.0,West,12.7,21.9,N/A,,Overcast,270,2012-12-11 08:53:00
2:53 AM,35.1,23.0,61,29.97,10.0,West,13.8,-,N/A,,Mostly Cloudy,270,2012-12-11 09:53:00
3:53 AM,35.1,23.0,61,29.94,10.0,West,8.1,-,N/A,,Clear,260,2012-12-11 10:53:00
4:53 AM,33.1,23.0,66,29.92,10.0,SSE,5.8,-,N/A,,Scattered Clouds,150,2012-12-11 11:53:00
5:53 AM,32.0,24.1,73,29.88,10.0,East,3.5,-,N/A,,Overcast,80,2012-12-11 12:53:00
6:53 AM,30.9,24.1,76,29.86,10.0,ESE,4.6,-,N/A,,Overcast,120,2012-12-11 13:53:00
7:53 AM,30.9,24.1,76,29.83,10.0,ESE,3.5,-,N/A,,Mostly Cloudy,110,2012-12-11 14:53:00
8:53 AM,30.9,24.1,76,29.81,10.0,Calm,Calm,-,N/A,,Partly Cloudy,0,2012-12-11 15:53:00
9:53 AM,32.0,24.1,73,29.80,10.0,West,4.6,-,N/A,,Clear,260,2012-12-11 16:53:00
10:53 AM,30.9,24.1,76,29.80,10.0,Calm,Calm,-,N/A,,Partly Cloudy,0,2012-12-11 17:53:00
11:53 AM,37.0,24.1,59,29.73,10.0,SSW,10.4,18.4,N/A,,Scattered Clouds,200,2012-12-11 18:53:00
12:53 PM,41.0,25.0,53,29.65,10.0,Variable,6.9,-,N/A,,Mostly Cloudy,0,2012-12-11 19:53:00
1:53 PM,36.0,26.1,67,29.65,10.0,Calm,Calm,-,N/A,,Scattered Clouds,0,2012-12-11 20:53:00
2:53 PM,44.1,19.9,38,29.60,10.0,West,10.4,-,N/A,,Partly Cloudy,270,2012-12-11 21:53:00
3:53 PM,43.0,19.9,40,29.62,10.0,West,13.8,-,N/A,,Scattered Clouds,260,2012-12-11 22:53:00
4:53 PM,39.9,21.0,47,29.63,10.0,WNW,4.6,-,N/A,,Overcast,290,2012-12-11 23:53:00
5:53 PM,39.0,24.1,55,29.64,10.0,West,12.7,-,N/A,,Overcast,280,2012-12-12 00:53:00
6:53 PM,37.9,24.1,57,29.63,10.0,West,3.5,-,N/A,,Mostly Cloudy,270,2012-12-12 01:53:00
7:53 PM,34.0,25.0,70,29.63,10.0,SE,6.9,-,N/A,,Clear,130,2012-12-12 02:53:00
8:53 PM,35.1,25.0,67,29.63,10.0,South,5.8,-,N/A,,Overcast,180,2012-12-12 03:53:00
9:53 PM,34.0,25.0,70,29.63,10.0,SSW,4.6,-,N/A,,Partly Cloudy,210,2012-12-12 04:53:00
10:53 PM,34.0,25.0,70,29.63,10.0,Calm,Calm,-,N/A,,Overcast,0,2012-12-12 05:53:00
11:53 PM,33.1,26.1,75,29.63,10.0,SW,4.6,-,N/A,,Overcast,220,2012-12-12 06:53:00